[[{"header":{"parameterUnit":"m.s-1","parameterCategory":1,"la1":30.2991,"la2":30.254,"lo1":-89.0895,"lo2":-89.0444,"dy":0.0017,"dx":0.0017,"nx":28,"ny":28,"refTime":"2025-05-23T03:00:00:Z","depth":0,"parameterNumber":2,"parameterNumberName":"U-component_of_WINDS"},"data":[0,0,0,0,0,0,0,0,0,0,0,0,0,0,0,0,0,0,0,0,0,0,0,0,0,0,0,0,0,0,0,0,0,0,0,0,0,0,0,0,0,0,0,0,0,0,0,0,0,0,0,0,0,0,0,0,0,0,-0.316,-0.3158,0,-0.2976,-0.2974,-0.2972,-0.2866,-0.2865,-0.2865,-0.2865,-0.2673,-0.2668,-0.2664,0,0,0,0,0,0,0,0,0,0,0,0,0,-0.3414,-0.341,-0.316,-0.3157,-0.3155,-0.2977,-0.2974,-0.2972,-0.2866,-0.2865,-0.2865,-0.2864,-0.2674,-0.2669,-0.2663,0,0,0,0,0,0,0,0,0,0,0,0,0,-0.3274,-0.3408,-0.316,-0.3081,-0.3072,-0.2977,-0.2974,-0.2971,-0.2866,-0.2865,-0.2865,-0.2864,-0.2676,-0.2669,-0.2662,-0.2631,0,0,-0.2641,-0.2638,0,0,0,0,0,0,0,0,-0.3282,-0.3265,-0.3095,-0.3086,-0.3076,-0.2943,-0.2993,-0.2857,-0.2866,-0.2944,-0.2865,-0.2864,-0.2763,-0.2749,-0.2716,-0.2622,-0.2614,-0.264,-0.2636,-0.2633,-0.2631,0,0,0,0,0,0,0,-0.3292,-0.3272,-0.3087,-0.3093,-0.3081,-0.3053,-0.3033,-0.2967,-0.2859,-0.2937,-0.2929,-0.2909,-0.2758,-0.2723,-0.271,-0.2611,-0.264,-0.2634,-0.263,-0.2627,-0.248,-0.248,0,0,0,0,0,0,-0.3315,-0.3281,-0.3093,-0.3082,-0.318,-0.3049,-0.3026,-0.2987,-0.286,-0.284,-0.291,-0.2905,-0.2735,-0.2719,-0.2703,-0.2656,-0.2633,-0.2626,-0.2622,-0.248,-0.248,-0.2481,0,0,0,0,0,0,-0.3321,-0.3299,-0.31,-0.3179,-0.3152,-0.3045,-0.3002,-0.2983,-0.2948,-0.2839,-0.2819,-0.2894,-0.2734,-0.2713,-0.2649,-0.2648,-0.2623,-0.2616,-0.2479,-0.248,-0.248,-0.2564,0,0,0,0,0,0,-0.3329,-0.3302,-0.329,-0.318,-0.3148,-0.3051,-0.3002,-0.298,-0.2937,-0.2928,-0.2819,-0.28,-0.2732,-0.2661,-0.2643,-0.2638,-0.2611,-0.2479,-0.248,-0.248,-0.2561,-0.2568,-0.2573,0,0,0,0,0,-0.3338,-0.332,-0.329,-0.3268,-0.3131,-0.3052,-0.3033,-0.2956,-0.2937,-0.2923,-0.2853,-0.2803,-0.2652,-0.2655,-0.2634,-0.2627,-0.2479,-0.2479,-0.248,-0.2558,-0.2566,-0.2573,0,0,0,0,0,0,-0.3432,-0.3305,-0.3269,-0.3216,-0.3146,-0.3034,-0.3014,-0.2967,-0.29,-0.2895,-0.2801,-0.2777,-0.2723,-0.2668,-0.2674,-0.2589,-0.256,-0.2556,-0.2627,-0.2633,-0.2639,-0.2653,-0.2605,0,0,0,0,0,-0.3447,-0.3395,-0.3285,-0.3248,-0.3215,-0.3121,-0.3084,-0.3031,-0.2953,-0.2923,-0.2848,-0.2774,-0.2709,-0.2668,-0.2603,-0.2553,-0.2527,-0.2538,-0.2545,-0.255,-0.2548,-0.2516,-0.2519,-0.2483,-0.2483,-0.2483,0,0,-0.3477,-0.34,-0.3373,-0.3265,-0.3205,-0.3151,-0.3097,-0.3042,-0.3001,-0.2914,-0.2849,-0.2792,-0.2703,-0.2646,-0.2617,-0.2599,-0.2552,-0.2551,-0.2556,-0.255,-0.2517,-0.2521,-0.2524,-0.2484,-0.2484,-0.2484,0,0,-0.3502,-0.3441,-0.3402,-0.3343,-0.3252,-0.3189,-0.318,-0.3075,-0.3034,-0.2968,-0.2902,-0.285,-0.2742,-0.2681,-0.2635,-0.2638,-0.2589,-0.262,-0.2651,-0.2621,-0.2624,-0.2626,-0.2625,-0.2626,-0.2618,-0.2618,-0.2618,0,-0.355,-0.3468,-0.3388,-0.3337,-0.3291,-0.3212,-0.3171,-0.3117,-0.3009,-0.2979,-0.2961,-0.2822,-0.2756,-0.2684,-0.2684,-0.2651,-0.2636,-0.2631,-0.263,-0.2631,-0.2632,-0.263,-0.263,-0.2622,-0.2622,-0.2621,-0.2621,0,-0.353,-0.3474,-0.3454,-0.3353,-0.3304,-0.3259,-0.3171,-0.3132,-0.3084,-0.3023,-0.2956,-0.2875,-0.2791,-0.277,-0.2721,-0.2689,-0.2681,-0.2648,-0.2616,-0.2641,-0.2637,-0.2636,-0.2628,-0.2627,-0.2625,-0.2624,0,0,-0.3609,-0.3465,-0.3459,-0.3411,-0.3305,-0.3259,-0.321,-0.3129,-0.3097,-0.3025,-0.298,-0.289,-0.2859,-0.2808,-0.2752,-0.2726,-0.2731,-0.2695,-0.2691,-0.2703,-0.2689,-0.2714,-0.2715,-0.2699,-0.2699,-0.2699,-0.2696,0,-0.3619,-0.3527,-0.3454,-0.3389,-0.3335,-0.3259,-0.3216,-0.3145,-0.3087,-0.3032,-0.2967,-0.2904,-0.2868,-0.2836,-0.2808,-0.2737,-0.2727,-0.2736,-0.2655,-0.2653,-0.2678,-0.2713,-0.2739,-0.2741,-0.2695,-0.2695,-0.2694,0,-0.3617,-0.3549,-0.348,-0.3378,-0.3353,-0.3315,-0.3235,-0.3184,-0.3102,-0.3061,-0.3004,-0.2946,-0.2889,-0.2864,-0.2783,-0.2791,-0.2754,-0.2714,-0.2712,-0.27,-0.2674,-0.2701,-0.274,-0.274,-0.2692,-0.2692,-0.2692,0,-0.368,-0.3571,-0.3515,-0.3477,-0.3358,-0.3333,-0.3282,-0.3199,-0.3155,-0.3085,-0.3055,-0.2979,-0.2937,-0.2878,-0.2801,-0.279,-0.2727,-0.2696,-0.269,-0.2692,-0.2679,-0.2681,-0.2712,-0.2658,-0.2658,-0.2658,-0.2658,0,-0.3697,-0.3657,-0.3542,-0.3507,-0.346,-0.3375,-0.333,-0.3272,-0.32,-0.3151,-0.3081,-0.3037,-0.2938,-0.2881,-0.282,-0.2762,-0.2743,-0.2708,-0.2691,-0.2713,-0.2717,-0.2686,-0.2683,-0.2658,-0.2658,-0.2658,-0.2658,0,-0.3759,-0.368,-0.3614,-0.3507,-0.3479,-0.3448,-0.3355,-0.3318,-0.3257,-0.3196,-0.3177,-0.308,-0.301,-0.2927,-0.283,-0.2789,-0.2735,-0.2712,-0.2763,-0.2753,-0.2752,-0.2753,-0.2762,-0.2758,-0.271,-0.271,-0.2711,0,-0.3774,-0.3742,-0.3631,-0.3594,-0.3546,-0.3487,-0.3442,-0.3358,-0.3313,-0.3217,-0.3191,-0.3116,-0.3051,-0.2943,-0.2862,-0.2787,-0.2761,-0.277,-0.2749,-0.2772,-0.2759,-0.2762,-0.2757,-0.2775,-0.2776,-0.2776,-0.2777,0,-0.381,-0.3772,-0.371,-0.3635,-0.3583,-0.3519,-0.3452,-0.3426,-0.3328,-0.3281,-0.3209,-0.3159,-0.306,-0.2986,-0.2901,-0.2846,-0.2795,-0.2784,-0.2779,-0.28,-0.283,-0.2812,-0.2776,-0.2784,-0.2783,-0.2783,-0.2782,-0.2782,-0.3847,-0.3814,-0.3731,-0.3664,-0.3605,-0.3544,-0.3504,-0.3437,-0.3376,-0.329,-0.3244,-0.3172,-0.309,-0.297,-0.2918,-0.286,-0.2842,-0.2835,-0.2832,-0.2831,-0.2837,-0.2841,-0.2844,-0.2844,-0.2844,-0.2844,-0.2843,0,-0.3878,-0.382,-0.376,-0.3669,-0.3616,-0.3574,-0.3497,-0.3455,-0.3394,-0.3322,-0.326,-0.3177,-0.3104,-0.3019,-0.294,-0.291,-0.2885,-0.2893,-0.2893,-0.2881,-0.2858,-0.287,-0.2915,-0.2915,-0.2915,-0.2915,-0.2915,-0.2915,-0.3887,-0.3829,-0.3782,-0.3693,-0.3635,-0.3566,-0.3525,-0.3468,-0.341,-0.3321,-0.3261,-0.3206,-0.3128,-0.3043,-0.2975,-0.2951,-0.2925,-0.294,-0.2909,-0.2889,-0.2883,-0.2877,-0.2888,-0.2935,-0.2935,-0.2936,-0.2936,-0.2936]},{"header":{"parameterUnit":"m.s-1","parameterCategory":1,"la1":30.2991,"la2":30.254,"lo1":-89.0895,"lo2":-89.0444,"dy":0.0017,"dx":0.0017,"nx":28,"ny":28,"refTime":"2025-05-23T03:00:00:Z","depth":0,"parameterNumber":3,"parameterNumberName":"V-component_of_WINDS"},"data":[0,0,0,0,0,0,0,0,0,0,0,0,0,0,0,0,0,0,0,0,0,0,0,0,0,0,0,0,0,0,0,0,0,0,0,0,0,0,0,0,0,0,0,0,0,0,0,0,0,0,0,0,0,0,0,0,0,0,3.5941,3.5941,0,3.5927,3.5927,3.5927,3.5925,3.5925,3.5925,3.5925,3.5908,3.5907,3.5907,0,0,0,0,0,0,0,0,0,0,0,0,0,3.5964,3.5964,3.5941,3.5941,3.5941,3.5927,3.5927,3.5927,3.5925,3.5925,3.5925,3.5925,3.5908,3.5907,3.5907,0,0,0,0,0,0,0,0,0,0,0,0,0,3.5952,3.5964,3.5941,3.5938,3.5938,3.5927,3.5927,3.5927,3.5925,3.5925,3.5925,3.5926,3.5908,3.5907,3.5906,3.5896,0,0,3.5904,3.5903,0,0,0,0,0,0,0,0,3.5953,3.5952,3.5939,3.5939,3.5938,3.5928,3.5929,3.5916,3.5925,3.593,3.5925,3.5926,3.5914,3.5913,3.591,3.5896,3.5895,3.5904,3.5903,3.5903,3.5902,0,0,0,0,0,0,0,3.5954,3.5952,3.5935,3.5939,3.5938,3.5937,3.5936,3.5926,3.5921,3.5929,3.5929,3.5928,3.5914,3.591,3.5909,3.5895,3.5904,3.5903,3.5902,3.5902,3.5872,3.5872,0,0,0,0,0,0,3.5956,3.5953,3.5936,3.5935,3.5946,3.5936,3.5935,3.5931,3.5921,3.592,3.5928,3.5928,3.5912,3.591,3.5908,3.5896,3.5903,3.5902,3.5901,3.5872,3.5872,3.5872,0,0,0,0,0,0,3.5956,3.5954,3.5936,3.5944,3.5942,3.5936,3.5931,3.5931,3.5927,3.592,3.5918,3.5925,3.5912,3.591,3.59,3.5896,3.5901,3.5901,3.5873,3.5872,3.5872,3.5872,0,0,0,0,0,0,3.5957,3.5954,3.5951,3.5944,3.5941,3.5929,3.5931,3.593,3.5926,3.5926,3.5917,3.5916,3.5912,3.5901,3.5899,3.5895,3.59,3.5873,3.5872,3.5872,3.5872,3.5872,3.5871,0,0,0,0,0,3.5958,3.5951,3.5951,3.5949,3.5937,3.5929,3.5927,3.5924,3.5926,3.5922,3.5917,3.5916,3.5897,3.59,3.5898,3.5893,3.5873,3.5873,3.5872,3.5873,3.5872,3.5871,0,0,0,0,0,0,3.5956,3.595,3.595,3.5941,3.5935,3.5928,3.5924,3.5923,3.5916,3.5916,3.5912,3.591,3.59,3.5895,3.5899,3.5883,3.5885,3.5884,3.5886,3.5885,3.5885,3.5886,3.5899,0,0,0,0,0,3.5955,3.595,3.5944,3.5936,3.5934,3.5929,3.5925,3.5924,3.5917,3.5915,3.5909,3.5902,3.5895,3.589,3.5883,3.5872,3.587,3.5867,3.5867,3.5866,3.5865,3.586,3.5859,3.587,3.587,3.587,0,0,3.5952,3.5948,3.5945,3.5936,3.5932,3.5925,3.5927,3.592,3.5915,3.5913,3.5904,3.59,3.5892,3.5882,3.5877,3.5878,3.5862,3.5866,3.5865,3.5865,3.5859,3.5858,3.5857,3.587,3.587,3.587,0,0,3.5944,3.594,3.5934,3.593,3.5924,3.5921,3.5919,3.5913,3.591,3.5901,3.59,3.5893,3.588,3.5875,3.587,3.5861,3.586,3.5859,3.5855,3.585,3.5849,3.5848,3.5845,3.5844,3.5858,3.5858,3.5858,0,3.5941,3.5932,3.593,3.5924,3.592,3.5919,3.5912,3.5908,3.59,3.5897,3.5898,3.5882,3.5877,3.5866,3.5863,3.586,3.5858,3.5859,3.5849,3.5849,3.5848,3.5845,3.5843,3.5858,3.5858,3.5858,3.5858,0,3.5929,3.5923,3.5918,3.5912,3.5907,3.59,3.5897,3.5893,3.5891,3.5888,3.5879,3.5872,3.5864,3.5861,3.5859,3.585,3.585,3.5851,3.5852,3.5847,3.5844,3.5842,3.5858,3.5858,3.5858,3.5858,0,0,3.5919,3.5912,3.591,3.5907,3.5901,3.5896,3.5889,3.5882,3.5878,3.5872,3.5866,3.5856,3.5856,3.5851,3.5849,3.5844,3.5837,3.5845,3.5845,3.5844,3.5826,3.5826,3.5825,3.5837,3.5836,3.5836,3.5827,0,3.591,3.5899,3.5897,3.5887,3.5882,3.5881,3.5875,3.587,3.5867,3.5861,3.5857,3.585,3.5851,3.5849,3.5844,3.5839,3.5834,3.584,3.583,3.583,3.5832,3.5823,3.5823,3.5815,3.5826,3.5826,3.5825,0,3.5898,3.5893,3.5883,3.5878,3.5875,3.587,3.5864,3.5859,3.5853,3.5851,3.5846,3.5844,3.5836,3.5839,3.5828,3.5833,3.5829,3.5826,3.5825,3.5824,3.5827,3.5822,3.5812,3.5811,3.5824,3.5824,3.5824,0,3.5892,3.5883,3.5875,3.5873,3.5867,3.5863,3.586,3.5855,3.5851,3.5845,3.5842,3.5835,3.5831,3.5826,3.5822,3.5824,3.5811,3.5814,3.5809,3.5809,3.5806,3.5806,3.5796,3.5804,3.5804,3.5804,3.5804,0,3.5882,3.5875,3.5873,3.5868,3.5861,3.5859,3.5852,3.5849,3.5844,3.5839,3.5837,3.5832,3.5828,3.5822,3.5818,3.581,3.5808,3.5806,3.5805,3.5806,3.5806,3.5803,3.5804,3.5803,3.5803,3.5804,3.5804,0,3.5873,3.5871,3.5864,3.5859,3.5858,3.5853,3.5848,3.5843,3.5841,3.5834,3.5832,3.5827,3.582,3.5816,3.5807,3.5805,3.5795,3.5795,3.5798,3.5797,3.5793,3.5794,3.578,3.5778,3.5787,3.5787,3.5787,0,3.5867,3.5863,3.5858,3.5855,3.5852,3.5847,3.5843,3.5841,3.5837,3.5831,3.5827,3.582,3.5814,3.5802,3.5798,3.5791,3.579,3.5786,3.5789,3.579,3.579,3.579,3.579,3.5785,3.5785,3.5785,3.5785,0,3.5856,3.5856,3.5851,3.5846,3.5842,3.5838,3.5834,3.5831,3.5828,3.5823,3.5817,3.5813,3.5804,3.5797,3.5789,3.5786,3.5784,3.5784,3.5782,3.5783,3.5785,3.5784,3.5796,3.5784,3.5784,3.5784,3.5784,3.5784,3.5849,3.5845,3.5841,3.5836,3.5833,3.5829,3.5825,3.5822,3.5817,3.581,3.5809,3.5802,3.5797,3.5787,3.5783,3.5777,3.5778,3.5776,3.5775,3.5775,3.5775,3.5786,3.5776,3.5776,3.5776,3.5776,3.5776,0,3.5838,3.5836,3.5831,3.5826,3.5822,3.5823,3.5818,3.5814,3.5809,3.5804,3.5799,3.5791,3.5785,3.578,3.5773,3.5769,3.5769,3.5768,3.5768,3.5767,3.5774,3.5776,3.5768,3.5768,3.5768,3.5768,3.5768,3.5768,3.5832,3.5826,3.5825,3.5817,3.5814,3.5808,3.5806,3.5802,3.5798,3.5791,3.5786,3.5783,3.5778,3.5771,3.5765,3.5764,3.5761,3.576,3.5759,3.5766,3.5766,3.5767,3.5769,3.576,3.576,3.5752,3.5752,3.5752]}]]